| time (UTC) | temp F | wind direction | speed knots | gust knots | rain 1hr in | rain 24hr in | rain mn in | humidity % | barometer mb |
| 20260506103102 | 49 | 66 | 1.7 | 7.0 | 0.00 | 0.00 | 0.00 | 75 | 1056.2 |
| 20260506101602 | 49 | 82 | 2.6 | 6.1 | 0.00 | 0.00 | 0.00 | 75 | 1055.9 |
| 20260506094602 | 49 | 216 | 1.7 | 4.3 | 0.00 | 0.00 | 0.00 | 74 | 1055.5 |
| 20260506093102 | 49 | 303 | 0.0 | 2.6 | 0.00 | 0.00 | 0.00 | 73 | 1054.9 |
| 20260506091602 | 49 | 140 | 0.0 | 4.3 | 0.00 | 0.00 | 0.00 | 72 | 1054.9 |
| 20260506081602 | 49 | 22 | 2.6 | 4.3 | 0.00 | 0.00 | 0.00 | 70 | 1053.8 |
| 20260506080602 | 49 | 306 | 2.6 | 5.2 | 0.00 | 0.00 | 0.00 | 70 | 1053.8 |
| 20260506072602 | 49 | 48 | 2.6 | 7.8 | 0.00 | 0.00 | 0.00 | 69 | 1053.2 |
| 20260506061602 | 49 | 302 | 3.5 | 7.8 | 0.00 | 0.00 | 0.00 | 68 | 1053.5 |
| 20260506042102 | 49 | 36 | 6.1 | 9.6 | 0.00 | 0.00 | 0.00 | 69 | 1053.2 |
| 20260506041102 | 49 | 42 | 1.7 | 7.0 | 0.00 | 0.00 | 0.00 | 70 | 1053.2 |
| 20260506035602 | 49 | 86 | 3.5 | 8.7 | 0.00 | 0.00 | 0.00 | 72 | 1053.2 |
| 20260506034102 | 49 | 76 | 3.5 | 7.8 | 0.00 | 0.00 | 0.00 | 74 | 1052.8 |
| 20260506032602 | 49 | 43 | 4.3 | 6.1 | 0.00 | 0.00 | 0.00 | 77 | 1052.2 |
| 20260506031103 | 49 | 76 | 2.6 | 9.6 | 0.00 | 0.00 | 0.00 | 76 | 1052.2 |
| 20260506025602 | 49 | 357 | 5.2 | 7.8 | 0.00 | 0.00 | 0.00 | 77 | 1052.2 |
| 20260506024102 | 49 | 282 | 1.7 | 6.1 | 0.00 | 0.00 | 0.00 | 77 | 1052.5 |
| 20260506021602 | 49 | 20 | 2.6 | 5.2 | 0.00 | 0.00 | 0.00 | 79 | 1052.2 |
| 20260506014603 | 50 | 70 | 2.6 | 7.0 | 0.00 | 0.00 | 0.00 | 78 | 1051.8 |
| 20260506013102 | 50 | 103 | 3.5 | 6.1 | 0.00 | 0.00 | 0.00 | 77 | 1051.5 |
| 20260506010602 | 50 | 170 | 0.9 | 5.2 | 0.00 | 0.00 | 0.00 | 76 | 1051.1 |
| 20260506005103 | 50 | 211 | 0.9 | 4.3 | 0.00 | 0.00 | 0.00 | 76 | 1050.5 |
| 20260506003602 | 51 | 46 | 6.1 | 6.1 | 0.00 | 0.00 | 0.00 | 75 | 1050.5 |
| 20260506002102 | 51 | 70 | 2.6 | 7.0 | 0.00 | 0.00 | 0.00 | 74 | 1050.1 |
| 20260506000602 | 51 | 103 | 3.5 | 7.0 | 0.00 | 0.00 | 0.00 | 73 | 1050.1 |
| 20260505235102 | 52 | 70 | 4.3 | 6.1 | 0.00 | 0.00 | 0.00 | 72 | 1049.8 |
| 20260505234102 | 52 | 5 | 4.3 | 8.7 | 0.00 | 0.00 | 0.00 | 70 | 1050.1 |
| 20260505232602 | 52 | 270 | 1.7 | 8.7 | 0.00 | 0.00 | 0.00 | 70 | 1050.5 |
| 20260505231102 | 53 | 76 | 5.2 | 5.2 | 0.00 | 0.00 | 0.00 | 70 | 1050.1 |
| 20260505225602 | 53 | 345 | 2.6 | 6.1 | 0.00 | 0.00 | 0.00 | 69 | 1050.1 |
| 20260505223102 | 53 | 17 | 5.2 | 8.7 | 0.00 | 0.00 | 0.00 | 70 | 1049.8 |
| 20260505214602 | 54 | 89 | 7.0 | 7.0 | 0.00 | 0.00 | 0.00 | 69 | 1048.8 |
| 20260505213102 | 54 | 341 | 4.3 | 10.4 | 0.00 | 0.00 | 0.00 | 68 | 1048.8 |
| 20260505212101 | 55 | 49 | 3.5 | 7.8 | 0.00 | 0.00 | 0.00 | 67 | 1048.8 |
| 20260505210602 | 55 | 77 | 4.3 | 7.8 | 0.00 | 0.00 | 0.00 | 68 | 1048.4 |
| 20260505203603 | 55 | 346 | 5.2 | 5.2 | 0.00 | 0.00 | 0.00 | 68 | 1048.8 |
| 20260505202603 | 55 | 18 | 2.6 | 7.8 | 0.00 | 0.00 | 0.00 | 69 | 1048.8 |
| 20260505201102 | 55 | 178 | 7.0 | 7.0 | 0.00 | 0.00 | 0.00 | 69 | 1048.1 |
| 20260505195603 | 55 | 87 | 1.7 | 6.1 | 0.00 | 0.00 | 0.00 | 71 | 1048.1 |
| 20260505194102 | 55 | 73 | 1.7 | 7.0 | 0.00 | 0.00 | 0.00 | 72 | 1048.4 |
| 20260505192603 | 55 | 107 | 3.5 | 7.0 | 0.00 | 0.00 | 0.00 | 74 | 1048.4 |
| 20260505185602 | 56 | 88 | 2.6 | 7.8 | 0.00 | 0.00 | 0.00 | 74 | 1048.1 |
| 20260505184102 | 57 | 16 | 5.2 | 8.7 | 0.00 | 0.00 | 0.00 | 73 | 1047.7 |
| 20260505183102 | 57 | 344 | 3.5 | 5.2 | 0.00 | 0.00 | 0.00 | 73 | 1047.7 |
| 20260505181602 | 58 | 97 | 5.2 | 7.0 | 0.00 | 0.00 | 0.00 | 72 | 1047.4 |
| 20260505180103 | 57 | 64 | 1.7 | 5.2 | 0.00 | 0.00 | 0.00 | 73 | 1047.4 |
| 20260505174602 | 57 | 115 | 1.7 | 6.1 | 0.00 | 0.00 | 0.00 | 75 | 1047.1 |
| 20260505173102 | 57 | 118 | 1.7 | 5.2 | 0.00 | 0.00 | 0.00 | 76 | 1047.1 |
| 20260505171602 | 57 | 76 | 6.1 | 6.1 | 0.00 | 0.00 | 0.00 | 76 | 1046.4 |
| 20260505170104 | 57 | 356 | 3.5 | 7.0 | 0.00 | 0.00 | 0.00 | 77 | 1046.4 |
| 20260505165102 | 57 | 36 | 1.7 | 7.8 | 0.00 | 0.00 | 0.00 | 76 | 1046.4 |
| 20260505163603 | 58 | 344 | 3.5 | 6.1 | 0.00 | 0.00 | 0.00 | 77 | 1045.7 |
| 20260505162102 | 58 | 1 | 2.6 | 7.0 | 0.00 | 0.00 | 0.00 | 78 | 1045.4 |
| 20260505160602 | 59 | 308 | 2.6 | 7.8 | 0.00 | 0.00 | 0.00 | 78 | 1044.7 |
| 20260505152103 | 62 | 28 | 8.7 | 8.7 | 0.00 | 0.00 | 0.00 | 77 | 1043.3 |
| 20260505150603 | 67 | 3 | 4.3 | 6.1 | 0.00 | 0.00 | 0.00 | 74 | 1043.0 |
| 20260505140603 | 68 | 109 | 5.2 | 9.6 | 0.00 | 0.00 | 0.00 | 81 | 1041.7 |
| 20260505123603 | 68 | 81 | 1.7 | 2.6 | 0.00 | 0.00 | 0.00 | 78 | 1041.3 |
| 20260505120603 | 69 | 130 | 0.0 | 0.0 | 0.00 | 0.00 | 0.00 | 76 | 1040.6 |
| 20260505115102 | 70 | 155 | 0.0 | 0.0 | 0.00 | 0.00 | 0.00 | 73 | 1040.6 |
| 20260505113602 | 70 | 100 | 0.0 | 0.9 | 0.00 | 0.00 | 0.00 | 72 | 1040.0 |
| 20260505112102 | 71 | 168 | 0.0 | 3.5 | 0.00 | 0.00 | 0.00 | 71 | 1039.3 |
| 20260505110602 | 71 | 171 | 0.9 | 3.5 | 0.00 | 0.00 | 0.00 | 70 | 1039.3 |